Time,TemperatureF,DewpointF,PressureIn,WindDirection,WindDirectionDegrees,WindSpeedMPH,WindSpeedGustMPH,Humidity,HourlyPrecipIn,Conditions,Clouds,dailyrainin,SoftwareType,DateUTC
2013-04-27 21:27:00,55.0,11.0,29.47,South,177,2.7,2.7,17,0.00,,---,0.00,VWS V14.01,2013-04-28 01:27:00,
2013-04-27 21:28:00,55.0,11.0,29.47,SSE,164,0.0,2.7,17,0.00,,---,0.00,VWS V14.01,2013-04-28 01:28:00,
2013-04-27 21:29:00,54.9,10.9,29.47,SSE,164,0.0,0.0,17,0.00,,---,0.00,VWS V14.01,2013-04-28 01:29:00,
2013-04-27 21:31:00,54.9,10.9,29.47,ENE,71,3.6,3.6,17,0.00,,---,0.00,VWS V14.01,2013-04-28 01:31:00,
2013-04-27 21:32:00,54.9,10.9,29.47,South,174,0.0,3.6,17,0.00,,---,0.00,VWS V14.01,2013-04-28 01:32:00,
2013-04-27 21:37:00,54.5,10.6,29.47,SSE,149,0.0,0.0,17,0.00,,---,0.00,VWS V14.01,2013-04-28 01:37:00,
2013-04-27 21:42:00,54.3,11.7,29.47,South,169,0.0,0.0,18,0.00,,---,0.00,VWS V14.01,2013-04-28 01:42:00,
2013-04-27 21:47:00,54.1,11.6,29.47,SSE,157,0.0,0.0,18,0.00,,---,0.00,VWS V14.01,2013-04-28 01:47:00,
2013-04-27 21:52:00,53.8,11.3,29.47,SE,139,0.0,0.0,18,0.00,,---,0.00,VWS V14.01,2013-04-28 01:52:00,
2013-04-27 21:57:00,53.2,10.9,29.47,SE,139,0.0,0.0,18,0.00,,---,0.00,VWS V14.01,2013-04-28 01:57:00,
2013-04-27 22:02:00,53.1,10.7,29.47,SE,126,3.1,4.0,18,0.00,,---,0.00,VWS V14.01,2013-04-28 02:02:00,
2013-04-27 22:07:00,52.7,10.4,29.47,SE,137,0.0,0.0,18,0.00,,---,0.00,VWS V14.01,2013-04-28 02:07:00,
2013-04-27 22:12:00,52.5,10.2,29.47,SE,140,2.7,3.6,18,0.00,,---,0.00,VWS V14.01,2013-04-28 02:12:00,
2013-04-27 22:17:00,52.3,10.1,29.47,SSW,202,0.0,0.0,18,0.00,,---,0.00,VWS V14.01,2013-04-28 02:17:00,
2013-04-27 22:22:00,52.2,10.0,29.47,SSW,202,0.0,0.0,18,0.00,,---,0.00,VWS V14.01,2013-04-28 02:22:00,
2013-04-27 22:27:00,51.8,9.7,29.47,SE,145,0.0,0.0,18,0.00,,---,0.00,VWS V14.01,2013-04-28 02:27:00,
2013-04-27 22:32:00,51.4,9.4,29.47,SE,145,0.0,0.0,18,0.00,,---,0.00,VWS V14.01,2013-04-28 02:32:00,
2013-04-27 22:37:00,51.3,9.2,29.47,SE,145,0.0,0.0,18,0.00,,---,0.00,VWS V14.01,2013-04-28 02:37:00,
2013-04-27 22:42:00,51.3,9.2,29.47,SE,144,0.0,0.0,18,0.00,,---,0.00,VWS V14.01,2013-04-28 02:42:00,
2013-04-27 22:47:00,51.1,9.1,29.47,SE,145,0.0,0.0,18,0.00,,---,0.00,VWS V14.01,2013-04-28 02:47:00,
2013-04-27 22:52:00,51.1,9.1,29.47,SE,145,0.0,0.0,18,0.00,,---,0.00,VWS V14.01,2013-04-28 02:52:00,
2013-04-27 22:57:00,50.9,8.9,29.47,SE,145,0.0,0.0,18,0.00,,---,0.00,VWS V14.01,2013-04-28 02:57:00,
2013-04-27 23:02:00,50.9,10.1,29.47,SSE,147,0.0,0.0,19,0.00,,---,0.00,VWS V14.01,2013-04-28 03:02:00,
2013-04-27 23:07:00,50.7,10.0,29.47,SSE,147,0.0,2.7,19,0.00,,---,0.00,VWS V14.01,2013-04-28 03:07:00,
2013-04-27 23:12:00,50.7,10.0,29.47,SE,138,3.6,4.0,19,0.00,,---,0.00,VWS V14.01,2013-04-28 03:12:00,
2013-04-27 23:17:00,50.7,10.0,29.47,SSE,165,0.0,0.0,19,0.00,,---,0.00,VWS V14.01,2013-04-28 03:17:00,
2013-04-27 23:23:00,50.7,10.0,29.47,SSE,165,0.0,0.0,19,0.00,,---,0.00,VWS V14.01,2013-04-28 03:23:00,
2013-04-27 23:28:00,50.7,10.0,29.47,SSE,165,0.0,0.0,19,0.00,,---,0.00,VWS V14.01,2013-04-28 03:28:00,
2013-04-27 23:33:00,50.5,9.8,29.47,SSE,165,0.0,2.7,19,0.00,,---,0.00,VWS V14.01,2013-04-28 03:33:00,
2013-04-27 23:38:00,50.4,9.7,29.47,SSE,165,0.0,2.7,19,0.00,,---,0.00,VWS V14.01,2013-04-28 03:38:00,
2013-04-27 23:43:00,50.2,9.5,29.47,SSE,165,0.0,0.0,19,0.00,,---,0.00,VWS V14.01,2013-04-28 03:43:00,
2013-04-27 23:48:00,50.2,9.5,29.47,SSE,165,0.0,0.0,19,0.00,,---,0.00,VWS V14.01,2013-04-28 03:48:00,
2013-04-27 23:53:00,50.2,9.5,29.47,SSE,165,0.0,0.0,19,0.00,,---,0.00,VWS V14.01,2013-04-28 03:53:00,
2013-04-27 23:58:00,50.2,9.5,29.47,SSE,165,0.0,0.0,19,0.00,,---,0.00,VWS V14.01,2013-04-28 03:58:00,